ATLAS 5 CENTAUR DEB, 47096

Orbit data source: Space-Track

ATLAS 5 CENTAUR DEB, 47096 is space debris in HEO originally from a launch on Wed, 17 Sep 2014 UTC launched from the Air Force Eastern Test Range (AFETR). Debris objects in space refer to the collection of defunct objects orbiting the Earth. Examples of debris include non-operational satellites, rocket bodies, and fragments generated from explosions, collisions, or faulty payload assembly.

Loading next visibility...
Identifier
47096, 2014-055DE
Orbit
HEO
Country
Flag of USUS
Related business
Flag of USUnited Launch Alliance/Lockheed Martin (US)
Manufacturer
Unknown
Mission
Spacecraft
Bus & Motor
Unknown
Mass
Unknown
Launch date (UTC)
2014-09-17 (11 years ago)
Launch vehicle
Unknown
Launch site
Air Force Eastern Test Range (AFETR)
Object type
Payload
Rocket body
Debris
Shape & HBR
Unknown shape, 1.1 m
Radar Cross Section
RCS unknown

Expand to show TLE details & history
Last TLE update: 5 days ago

TLE from 5 days ago
0 ATLAS 5 CENTAUR DEB
1 47096U 14055DE  26067.85579234 -.00000022  00000-0  00000-0 0  9990
2 47096  19.2731 176.0183 4883545 108.0242 309.4442  1.79155208 35328
Epoch: 2026-03-08T20:32Z
TLE epoch observation values (Epoch: 2026-03-08T20:32:20.458Z)
Latitude
0.00002°
Longitude
61.33139°
Altitude
19,344.324 km
Speed
4.132 km/s
True Right ascension
11h 43m 53s
True Declination
0° 00' 00"
Sunlit
Object was in full shadow at epoch
Visualization orbit readout
Latitude
Unknown
Longitude
Unknown
Altitude
Unknown
Speed
Unknown
Apparent Right ascension
Unknown
Apparent Declination
Unknown
Sunlit
N/A
Visualization observer readout
Local Sidereal Time
08:45:25
Azimuth
Unknown
Elevation
Unknown
Doppler factor
Unknown
Orbital elements
Apogee altitude
36,245.604 km
Perigee altitude
8,274.451 km
Semi-major axis
28,638.165 km
Eccentricity
0.48835
Inclination
19.2731°
RAAN
176.0183°
Arg. of periapsis
108.0242°
True anomaly
251.89317°
Mean anomaly
309.4442°
Eccentric anomaly
282.0835°
Mean motion
0.44784 °/min
Orbital period
803.85 mins
BSTAR
0
Loading maneuver chart data...
Computing Atmospheric mass density...

Documentation

Showing up to 5 results
|